Location: Darmstadt
(49.8706°N, 8.6494°E)
Time: 06:47:24
(UTC+01:00)

Lacrosse 5 - Pass Details

Date: 31 October 2020
Orbit: 714 x 725 km, 57.0° (Epoch: 30 November)

Event Time Altitude Azimuth Distance (km) Brightness Sun altitude
Rises 19:08:52 0° 300° (WNW) 3,121 6.2 -20.6°
Reaches altitude 10° 19:11:19 10° 305° (NW) 2,199 5.2 -21.0°
Maximum altitude 19:16:16 54° 23° (NNE) 871 2.1 -21.8°
Enters shadow 19:17:03 49° 56° (NE) 927 2.1 -21.9°
